{"data":{"norad_id":62749,"epoch":"2026-09-21T08:30:10.948032Z","epoch_age_seconds":97371,"freshness":"FRESH","line1":"1 62749U 25014Q   26264.35429338  .00005771  00000+0  21910-3 0  9992","line2":"2 62749  43.0016 132.6755 0000336 318.7566  41.3261 15.27576597 93149","mean_motion":15.27576597,"eccentricity":3.36e-5,"inclination_deg":43.0016,"raan_deg":132.6755,"arg_perigee_deg":318.7566,"mean_anomaly_deg":41.3261,"bstar":0.0002191,"rev_number":9314,"period_min":94.266958712775,"perigee_km":482.82874966959,"apogee_km":483.28982206,"semimajor_km":6861.1962858648,"source":"CELESTRAK","updated_at":"2026-09-22T09:00:49.658796Z"}}